Location: Complexul Astronomic Baia Mare
(47.6577°N, 23.5639°E)
Time: 05:52:10
(UTC+03:00)

ISS - Pass Details

Date: 08 March 2017
Orbit: 399 x 409 km, 51.6° (Epoch: 30 March)

Event Time Altitude Azimuth Distance (km) Brightness Sun altitude
Exits shadow 04:06:27 15° 98° (E) 1,212 -0.8 -28.1°
Drops below altitude 10° 04:07:20 10° 87° (E) 1,478 -0.2 -28.0°
Sets 04:09:42 0° 72° (ENE) 2,345 1.3 -27.6°
